EW5474 Weather Reports


time (UTC)temp
C
wind
direction
speed
KPH
gust
KPH
rain 1hr
cm
rain 24hr
cm
rain mn
cm
humidity
%
barometer
mb
20260505184034 27 185 4.8 16.1 0.00 0.00 0.00 36 1014.7
20260505183257 27 212 4.8 16.1 0.00 0.00 0.00 37 1014.7
20260505182751 27 254 4.8 14.5 0.00 0.00 0.00 38 1014.7
20260505182245 27 141 3.2 9.7 0.00 0.00 0.00 39 1014.8
20260505182010 27 208 4.8 11.3 0.00 0.00 0.00 38 1014.8
20260505181233 27 239 4.8 11.3 0.00 0.00 0.00 39 1015.0
20260505180727 27 229 4.8 11.3 0.00 0.00 0.00 39 1014.9
20260505180221 26 232 3.2 11.3 0.00 0.00 0.00 40 1014.8
20260505175715 27 281 4.8 12.9 0.00 0.00 0.00 39 1014.9
20260505175209 27 209 4.8 12.9 0.00 0.00 0.00 38 1014.9
20260505174703 27 167 4.8 19.3 0.00 0.00 0.00 42 1014.9
20260505174428 26 220 4.8 19.3 0.00 0.00 0.00 41 1015.0
20260505173650 26 211 4.8 14.5 0.00 0.00 0.00 42 1015.0
20260505173145 26 214 4.8 11.3 0.00 0.00 0.00 43 1014.9
20260505172639 26 178 4.8 11.3 0.00 0.00 0.00 40 1015.1
20260505172133 27 208 4.8 19.3 0.00 0.00 0.00 41 1015.2
20260505171857 26 219 4.8 19.3 0.00 0.00 0.00 42 1015.3
20260505171121 26 256 3.2 9.7 0.00 0.00 0.00 42 1015.3
20260505170615 26 231 4.8 16.1 0.00 0.00 0.00 43 1015.3
20260505170113 26 185 4.8 16.1 0.00 0.00 0.00 43 1015.4
20260505165603 26 209 6.4 11.3 0.00 0.00 0.00 44 1015.6
20260505165056 26 178 4.8 14.5 0.00 0.00 0.00 44 1015.6
20260505164822 26 209 3.2 12.9 0.00 0.00 0.00 44 1015.5
20260505164045 26 208 3.2 12.9 0.00 0.00 0.00 42 1015.6
20260505163539 26 225 3.2 8.0 0.00 0.00 0.00 45 1015.6
20260505163304 25 163 4.8 14.5 0.00 0.00 0.00 46 1015.7
20260505162530 25 178 4.8 12.9 0.00 0.00 0.00 44 1015.7
20260505162523 25 209 3.2 9.7 0.00 0.00 0.00 45 1015.7
20260505161746 25 240 3.2 9.7 0.00 0.00 0.00 46 1015.8
20260505161009 25 196 3.2 16.1 0.00 0.00 0.00 47 1015.8
20260505160503 26 126 3.2 16.1 0.00 0.00 0.00 48 1015.9
20260505152921 24 246 3.2 14.5 0.00 0.00 0.00 49 1016.0
20260505152646 24 218 3.2 14.5 0.00 0.00 0.00 50 1016.0
20260505151909 24 214 3.2 8.0 0.00 0.00 0.00 49 1016.1
20260505151403 24 220 3.2 9.7 0.00 0.00 0.00 50 1016.0
20260505150857 23 215 3.2 9.7 0.00 0.00 0.00 49 1016.0
20260505150351 23 242 4.8 9.7 0.00 0.00 0.00 53 1016.2
20260505130127 19 185 3.2 8.0 0.00 0.00 0.00 61 1016.6
20260505124609 18 190 1.6 6.4 0.00 0.00 0.00 62 1016.5
20260505124103 18 227 1.6 8.0 0.00 0.00 0.00 62 1016.4
20260505123827 18 210 1.6 8.0 0.00 0.00 0.00 63 1016.5
20260505123051 18 207 3.2 9.7 0.00 0.00 0.00 63 1016.5
20260505122545 18 202 3.2 9.7 0.00 0.00 0.00 63 1016.5
20260505122038 17 213 3.2 8.0 0.00 0.00 0.00 63 1016.5
20260505121804 17 224 1.6 8.0 0.00 0.00 0.00 64 1016.5
20260505121027 17 204 3.2 8.0 0.00 0.00 0.00 64 1016.4
20260505120520 17 226 3.2 8.0 0.00 0.00 0.00 64 1016.4
20260505120015 17 229 3.2 12.9 0.00 0.00 0.00 65 1016.4
20260505115510 16 198 3.2 12.9 0.00 0.00 0.00 65 1016.3
20260505115504 16 222 3.2 9.7 0.00 0.00 0.00 66 1016.4
20260505114457 16 202 3.2 9.7 0.00 0.00 0.00 66 1016.4
20260505113950 16 176 1.6 6.4 0.00 0.00 0.00 67 1016.4
20260505113716 16 234 1.6 6.4 0.00 0.00 0.00 68 1016.2
20260505112939 15 220 0.0 3.2 0.00 0.00 0.00 68 1016.2
20260505112432 15 229 1.6 3.2 0.00 0.00 0.00 68 1016.2
20260505112030 15 219 1.6 8.0 0.00 0.00 0.00 68 1016.1
20260505110915 15 248 0.0 8.0 0.00 0.00 0.00 69 1016.1
20260505110409 15 207 1.6 4.8 0.00 0.00 0.00 69 1016.0
20260505110134 15 210 1.6 8.0 0.00 0.00 0.00 69 1015.9
20260505101814 15 200 0.0 3.2 0.00 0.00 0.00 70 1015.6
20260505101309 15 199 0.0 3.2 0.00 0.00 0.00 70 1015.5
20260505100803 15 217 0.0 0.0 0.00 0.00 0.00 70 1015.5
20260505100256 15 211 0.0 3.2 0.00 0.00 0.00 69 1015.4
20260505100022 15 215 0.0 3.2 0.00 0.00 0.00 69 1015.3
20260505095245 15 200 0.0 3.2 0.00 0.00 0.00 69 1015.3
20260505094739 15 203 0.0 3.2 0.00 0.00 0.00 69 1015.3
20260505094233 15 207 0.0 3.2 0.00 0.00 0.00 69 1015.2
20260505093727 15 204 0.0 4.8 0.00 0.00 0.00 69 1015.1
20260505093452 15 204 0.0 4.8 0.00 0.00 0.00 69 1015.1
20260505092715 15 184 0.0 3.2 0.00 0.00 0.00 69 1015.1
20260505092212 15 236 0.0 3.2 0.00 0.00 0.00 69 1015.1
20260505092205 15 211 0.0 4.8 0.00 0.00 0.00 69 1015.1
20260505091156 15 202 0.0 4.8 0.00 0.00 0.00 68 1015.0
20260505090651 15 192 0.0 3.2 0.00 0.00 0.00 68 1015.0
20260505090416 15 207 0.0 3.2 0.00 0.00 0.00 68 1014.9
20260505085639 15 195 0.0 1.6 0.00 0.00 0.00 68 1014.8
20260505085133 15 215 0.0 1.6 0.00 0.00 0.00 68 1014.9
20260505084627 15 216 0.0 1.6 0.00 0.00 0.00 67 1014.9
20260505084121 15 224 0.0 0.0 0.00 0.00 0.00 68 1014.9
20260505083615 15 205 0.0 1.6 0.00 0.00 0.00 67 1014.9
20260505083109 15 205 0.0 8.0 0.00 0.00 0.00 67 1014.9
20260505082603 15 205 0.0 8.0 0.00 0.00 0.00 67 1014.9
20260505082057 15 207 0.0 1.6 0.00 0.00 0.00 67 1014.9
20260505081551 15 192 0.0 3.2 0.00 0.00 0.00 66 1014.9
20260505081044 15 200 0.0 3.2 0.00 0.00 0.00 66 1014.9
20260505080539 16 200 0.0 1.6 0.00 0.00 0.00 66 1014.8
20260505080033 16 215 0.0 3.2 0.00 0.00 0.00 66 1014.8
20260505075527 16 203 0.0 3.2 0.00 0.00 0.00 66 1014.8
20260505075021 16 174 0.0 1.6 0.00 0.00 0.00 66 1014.7
20260505074515 16 192 0.0 0.0 0.00 0.00 0.00 66 1014.7
20260505074009 16 217 0.0 0.0 0.00 0.00 0.00 65 1014.7
20260505073502 16 212 0.0 3.2 0.00 0.00 0.00 65 1014.6
20260505072957 16 213 0.0 3.2 0.00 0.00 0.00 65 1014.6
20260505072722 16 218 0.0 4.8 0.00 0.00 0.00 65 1014.5
20260505072216 16 209 1.6 4.8 0.00 0.00 0.00 65 1014.5
20260505071439 16 192 1.6 4.8 0.00 0.00 0.00 64 1014.5
20260505070933 16 214 0.0 4.8 0.00 0.00 0.00 64 1014.5
20260505070427 16 214 0.0 4.8 0.00 0.00 0.00 64 1014.4
20260505070156 16 203 0.0 4.8 0.00 0.00 0.00 64 1014.4
20260505065411 16 208 0.0 4.8 0.00 0.00 0.00 64 1014.4
20260505064905 16 225 0.0 3.2 0.00 0.00 0.00 63 1014.5
20260505064359 16 212 1.6 4.8 0.00 0.00 0.00 63 1014.5
20260505063853 16 197 1.6 4.8 0.00 0.00 0.00 63 1014.5
20260505063347 17 202 1.6 4.8 0.00 0.00 0.00 62 1014.6
20260505062841 17 178 1.6 4.8 0.00 0.00 0.00 62 1014.6
20260505062335 17 210 0.0 4.8 0.00 0.00 0.00 62 1014.7
20260505061829 17 200 1.6 4.8 0.00 0.00 0.00 62 1014.6
20260505061323 17 211 1.6 4.8 0.00 0.00 0.00 62 1014.6
20260505060817 17 220 1.6 4.8 0.00 0.00 0.00 62 1014.6
20260505060311 17 245 1.6 4.8 0.00 0.00 0.00 61 1014.5
20260505055804 17 215 1.6 6.4 0.00 0.00 0.00 61 1014.6
20260505055259 17 217 1.6 6.4 0.00 0.00 0.00 61 1014.6
20260505054753 17 207 3.2 8.0 0.00 0.00 0.00 61 1014.7
20260505054519 17 200 1.6 8.0 0.00 0.00 0.00 61 1014.7
20260505054012 17 222 1.6 8.0 0.00 0.00 0.00 61 1014.7
20260505053235 17 231 3.2 8.0 0.00 0.00 0.00 61 1014.7
20260505053000 17 212 3.2 6.4 0.00 0.00 0.00 61 1014.7
20260505052222 17 223 3.2 11.3 0.00 0.00 0.00 61 1014.7
20260505051717 17 223 1.6 9.7 0.00 0.00 0.00 61 1014.7
20260505051224 17 234 1.6 4.8 0.00 0.00 0.00 61 1014.8
20260505050704 17 210 1.6 8.0 0.00 0.00 0.00 60 1014.8
20260505050159 17 223 1.6 8.0 0.00 0.00 0.00 60 1015.0
20260505041605 18 215 1.6 6.4 0.00 0.00 0.00 61 1014.9
20260505041059 18 209 1.6 8.0 0.00 0.00 0.00 61 1014.8
20260505040553 18 185 1.6 6.4 0.00 0.00 0.00 61 1014.7
20260505040330 18 220 1.6 6.4 0.00 0.00 0.00 61 1014.7
20260505035541 18 211 1.6 6.4 0.00 0.00 0.00 60 1014.7
20260505035035 18 203 1.6 6.4 0.00 0.00 0.00 60 1014.7
20260505034528 18 210 3.2 6.4 0.00 0.00 0.00 60 1014.7
20260505034023 18 213 3.2 6.4 0.00 0.00 0.00 60 1014.6
20260505033517 18 191 1.6 6.4 0.00 0.00 0.00 60 1014.6
20260505033011 18 184 3.2 8.0 0.00 0.00 0.00 60 1014.6
20260505032505 18 215 3.2 12.9 0.00 0.00 0.00 60 1014.6
20260505031959 18 223 3.2 12.9 0.00 0.00 0.00 60 1014.6
20260505031453 18 217 3.2 6.4 0.00 0.00 0.00 60 1014.5
20260505030947 18 213 3.2 8.0 0.00 0.00 0.00 60 1014.5
20260505030444 18 217 3.2 8.0 0.00 0.00 0.00 60 1014.5
20260505030438 18 222 3.2 8.0 0.00 0.00 0.00 60 1014.5
20260505025429 18 239 3.2 8.0 0.00 0.00 0.00 60 1014.6
20260505024923 18 201 3.2 8.0 0.00 0.00 0.00 60 1014.5
20260505024417 18 211 3.2 11.3 0.00 0.00 0.00 60 1014.4
20260505024142 18 200 3.2 11.3 0.00 0.00 0.00 61 1014.4
20260505023405 18 220 3.2 8.0 0.00 0.00 0.00 61 1014.4
20260505022859 18 199 3.2 11.3 0.00 0.00 0.00 61 1014.4
20260505022352 18 177 3.2 11.3 0.00 0.00 0.00 61 1014.4
20260505021847 18 250 3.2 8.0 0.00 0.00 0.00 61 1014.4
20260505021341 18 204 3.2 12.9 0.00 0.00 0.00 61 1014.4
20260505020835 18 217 3.2 12.9 0.00 0.00 0.00 61 1014.5
20260505020329 18 205 1.6 6.4 0.00 0.00 0.00 61 1014.6
20260505020054 19 194 3.2 9.7 0.00 0.00 0.00 61 1014.5
20260505015547 19 213 3.2 9.7 0.00 0.00 0.00 61 1014.4
20260505014811 19 205 3.2 8.0 0.00 0.00 0.00 61 1014.4
20260505014304 19 175 4.8 9.7 0.00 0.00 0.00 61 1014.4
20260505013759 19 208 3.2 9.7 0.00 0.00 0.00 61 1014.3
20260505013253 19 201 3.2 8.0 0.00 0.00 0.00 60 1014.3
20260505012747 19 217 3.2 8.0 0.00 0.00 0.00 60 1014.3
20260505012241 19 227 3.2 8.0 0.00 0.00 0.00 60 1014.2
20260505011735 19 188 4.8 14.5 0.00 0.00 0.00 60 1014.1
20260505011229 20 207 3.2 14.5 0.00 0.00 0.00 59 1014.1
20260505010723 20 209 3.2 8.0 0.00 0.00 0.00 59 1013.9
20260505010217 20 202 4.8 16.1 0.00 0.00 0.00 59 1013.8
20260505005942 20 209 4.8 16.1 0.00 0.00 0.00 59 1013.7
20260505005205 20 209 4.8 12.9 0.00 0.00 0.00 59 1013.7
20260505004659 20 189 4.8 11.3 0.00 0.00 0.00 58 1013.5
20260505004153 20 229 4.8 11.3 0.00 0.00 0.00 58 1013.5
20260505003647 20 173 3.2 11.3 0.00 0.00 0.00 58 1013.5
20260505003140 20 170 3.2 11.3 0.00 0.00 0.00 58 1013.4
20260505002635 20 207 4.8 9.7 0.00 0.00 0.00 57 1013.4
20260505002129 20 203 4.8 12.9 0.00 0.00 0.00 57 1013.3
20260505001622 20 145 4.8 14.5 0.00 0.00 0.00 56 1013.3
20260505001117 21 190 4.8 14.5 0.00 0.00 0.00 56 1013.2
20260505000611 21 207 4.8 12.9 0.00 0.00 0.00 56 1013.1
20260505000109 21 169 4.8 12.9 0.00 0.00 0.00 55 1013.1
20260504235559 21 199 4.8 20.9 0.00 0.00 0.00 55 1013.2
20260504235053 21 205 4.8 20.9 0.00 0.00 0.00 54 1013.0
20260504234547 21 238 4.8 12.9 0.00 0.00 0.00 54 1013.1
20260504234041 21 217 4.8 22.5 0.00 0.00 0.00 54 1012.9
20260504233806 21 223 4.8 22.5 0.00 0.00 0.00 54 1012.9
20260504233300 21 205 4.8 14.5 0.00 0.00 0.00 54 1012.8
20260504232523 21 227 4.8 16.1 0.00 0.00 0.00 53 1012.7
20260504232017 22 210 6.4 24.1 0.00 0.00 0.00 52 1012.6
20260504231511 22 189 8.0 24.1 0.00 0.00 0.00 51 1012.6
20260504231005 22 195 6.4 22.5 0.00 0.00 0.00 50 1012.6
20260504230459 22 163 4.8 16.1 0.00 0.00 0.00 49 1012.5
20260504225953 23 215 4.8 16.1 0.00 0.00 0.00 47 1012.4
20260504225447 23 200 4.8 11.3 0.00 0.00 0.00 44 1012.4
20260504224940 23 194 3.2 11.3 0.00 0.00 0.00 37 1012.2
20260504224435 23 173 3.2 8.0 0.00 0.00 0.00 38 1012.2
20260504223423 24 213 1.6 9.7 0.00 0.00 0.00 37 1012.2
20260504222916 24 202 1.6 8.0 0.00 0.00 0.00 37 1012.2
20260504222642 24 175 1.6 6.4 0.00 0.00 0.00 37 1012.2
20260504221905 24 206 3.2 16.1 0.00 0.00 0.00 38 1012.2
20260504221359 24 206 4.8 16.1 0.00 0.00 0.00 37 1012.3
20260504221124 24 223 3.2 9.7 0.00 0.00 0.00 36 1012.2
20260504220347 24 228 3.2 9.7 0.00 0.00 0.00 37 1012.2
20260504215841 24 208 1.6 6.4 0.00 0.00 0.00 36 1012.2
20260504215607 24 194 1.6 9.7 0.00 0.00 0.00 37 1012.2
20260504215330 24 223 3.2 9.7 0.00 0.00 0.00 36 1012.3
20260504214323 24 223 1.6 8.0 0.00 0.00 0.00 37 1012.3
20260504214048 24 267 3.2 8.0 0.00 0.00 0.00 38 1012.3
20260504213311 24 155 3.2 8.0 0.00 0.00 0.00 36 1012.4
20260504212805 24 281 3.2 11.3 0.00 0.00 0.00 37 1012.4
20260504212259 24 205 3.2 12.9 0.00 0.00 0.00 36 1012.5
20260504211752 25 198 3.2 12.9 0.00 0.00 0.00 35 1012.5
20260504211247 25 211 4.8 11.3 0.00 0.00 0.00 35 1012.5
20260504210740 25 190 3.2 11.3 0.00 0.00 0.00 35 1012.5
20260504210506 24 219 3.2 9.7 0.00 0.00 0.00 36 1012.5
20260504210000 24 216 3.2 12.9 0.00 0.00 0.00 35 1012.5
20260504205454 25 213 3.2 12.9 0.00 0.00 0.00 37 1012.4
20260504204716 25 201 3.2 11.3 0.00 0.00 0.00 38 1012.5
20260504204210 25 17 3.2 14.5 0.00 0.00 0.00 39 1012.6
20260504203707 25 200 3.2 14.5 0.00 0.00 0.00 37 1012.6
20260504203701 25 163 3.2 8.0 0.00 0.00 0.00 36 1012.6
20260504202653 25 207 1.6 9.7 0.00 0.00 0.00 35 1012.6
20260504202418 25 238 3.2 9.7 0.00 0.00 0.00 36 1012.7
20260504201641 25 178 3.2 9.7 0.00 0.00 0.00 34 1012.6
20260504201135 25 292 3.2 11.3 0.00 0.00 0.00 34 1012.6
20260504200631 25 245 1.6 11.3 0.00 0.00 0.00 34 1012.7
20260504200625 25 224 1.6 6.4 0.00 0.00 0.00 35 1012.7
20260504195848 25 216 3.2 8.0 0.00 0.00 0.00 34 1012.9
20260504195110 25 228 3.2 8.0 0.00 0.00 0.00 33 1012.8
20260504194605 25 238 3.2 9.7 0.00 0.00 0.00 35 1013.0
20260504194059 25 338 1.6 9.7 0.00 0.00 0.00 36 1013.0
20260504193552 25 239 1.6 8.0 0.00 0.00 0.00 36 1013.1
20260504193149 25 215 3.2 11.3 0.00 0.00 0.00 36 1013.2
20260504192035 24 194 3.2 9.7 0.00 0.00 0.00 37 1013.2
20260504191529 25 220 3.2 9.7 0.00 0.00 0.00 36 1013.4
20260504191023 24 304 3.2 9.7 0.00 0.00 0.00 36 1013.4
20260504190517 24 218 3.2 9.7 0.00 0.00 0.00 39 1013.4
20260504190014 24 149 3.2 11.3 0.00 0.00 0.00 37 1013.6
20260504190008 24 222 1.6 11.3 0.00 0.00 0.00 38 1013.6
20260504184959 24 206 3.2 9.7 0.00 0.00 0.00 36 1013.7
20260504184453 24 347 3.2 9.7 0.00 0.00 0.00 38 1013.6